Time,TemperatureF,DewpointF,PressureIn,WindDirection,WindDirectionDegrees,WindSpeedMPH,WindSpeedGustMPH,Humidity,HourlyPrecipIn,Conditions,Clouds,dailyrainin,SoftwareType,DateUTC
2013-07-03 00:00:00,58.8,51.6,30.09,ENE,76,0.0,0.0,77,0.00,,,0.00,meteohub,2013-07-03 05:00:00,
2013-07-03 00:05:00,59.0,52.2,30.09,ENE,76,0.0,0.0,78,0.00,,,0.00,meteohub,2013-07-03 05:05:00,
2013-07-03 00:08:00,59.0,51.8,30.09,ENE,76,0.0,0.0,77,0.00,,,0.00,meteohub,2013-07-03 05:08:00,
2013-07-03 00:13:00,58.8,51.3,30.09,ENE,76,0.0,0.0,76,0.00,,,0.00,meteohub,2013-07-03 05:13:00,
2013-07-03 00:18:00,59.0,51.4,30.09,ENE,76,0.0,0.0,76,0.00,,,0.00,meteohub,2013-07-03 05:18:00,
2013-07-03 00:19:00,59.0,51.4,30.08,ENE,76,0.0,0.0,76,0.00,,,0.00,meteohub,2013-07-03 05:19:00,
2013-07-03 00:24:00,59.2,52.0,30.08,ENE,76,0.0,1.0,77,0.00,,,0.00,meteohub,2013-07-03 05:24:00,
2013-07-03 00:30:00,59.4,52.2,30.08,ENE,76,0.0,1.0,77,0.00,,,0.00,meteohub,2013-07-03 05:30:00,
2013-07-03 00:35:00,59.4,51.8,30.08,ENE,76,0.0,1.0,76,0.00,,,0.00,meteohub,2013-07-03 05:35:00,
2013-07-03 00:40:00,59.4,52.2,30.08,ENE,76,0.0,1.0,77,0.00,,,0.00,meteohub,2013-07-03 05:40:00,
2013-07-03 00:45:00,59.4,52.2,30.08,ENE,76,0.0,1.0,77,0.00,,,0.00,meteohub,2013-07-03 05:45:00,
2013-07-03 00:51:00,59.4,52.2,30.08,ENE,76,0.0,1.0,77,0.00,,,0.00,meteohub,2013-07-03 05:51:00,
2013-07-03 00:56:00,59.4,51.8,30.08,ENE,76,1.0,1.0,76,0.00,,,0.00,meteohub,2013-07-03 05:56:00,
2013-07-03 00:57:00,59.4,51.8,30.08,ENE,76,1.0,1.0,76,0.00,,,0.00,meteohub,2013-07-03 05:57:00,
2013-07-03 00:59:00,59.4,51.8,30.08,ENE,76,0.0,1.0,76,0.00,,,0.00,meteohub,2013-07-03 05:59:00,
2013-07-03 01:03:00,59.5,52.3,30.08,ENE,76,1.0,2.0,77,0.00,,,0.00,meteohub,2013-07-03 06:03:00,
2013-07-03 01:09:00,59.5,52.0,30.08,ENE,76,1.0,2.0,76,0.00,,,0.00,meteohub,2013-07-03 06:09:00,
2013-07-03 01:14:00,59.5,52.3,30.07,ENE,76,0.0,3.0,77,0.00,,,0.00,meteohub,2013-07-03 06:14:00,
2013-07-03 01:17:00,59.5,52.3,30.07,ENE,76,0.0,3.0,77,0.00,,,0.00,meteohub,2013-07-03 06:17:00,
2013-07-03 01:22:00,59.5,52.3,30.07,ENE,76,1.0,3.0,77,0.00,,,0.00,meteohub,2013-07-03 06:22:00,
2013-07-03 01:24:00,59.5,52.3,30.07,ENE,76,1.0,3.0,77,0.00,,,0.00,meteohub,2013-07-03 06:24:00,
2013-07-03 01:27:00,59.5,52.3,30.07,ENE,76,0.0,2.0,77,0.00,,,0.00,meteohub,2013-07-03 06:27:00,
2013-07-03 01:32:00,59.5,53.1,30.07,ENE,76,0.0,2.0,79,0.00,,,0.00,meteohub,2013-07-03 06:32:00,
2013-07-03 01:38:00,59.5,53.4,30.07,ENE,76,1.0,2.0,80,0.00,,,0.00,meteohub,2013-07-03 06:38:00,
2013-07-03 01:43:00,59.4,52.9,30.07,ENE,76,2.0,2.0,79,0.00,,,0.00,meteohub,2013-07-03 06:43:00,
2013-07-03 01:49:00,59.4,53.2,30.07,ENE,76,0.0,2.0,80,0.00,,,0.00,meteohub,2013-07-03 06:49:00,
2013-07-03 01:54:00,59.5,53.1,30.07,ENE,76,0.0,3.0,79,0.00,,,0.00,meteohub,2013-07-03 06:54:00,
2013-07-03 01:55:00,59.5,53.1,30.07,ENE,76,0.0,3.0,79,0.00,,,0.00,meteohub,2013-07-03 06:55:00,
2013-07-03 02:01:00,59.5,53.4,30.07,ENE,76,0.0,3.0,80,0.00,,,0.00,meteohub,2013-07-03 07:01:00,
2013-07-03 02:06:00,59.5,53.4,30.06,ENE,76,0.0,1.0,80,0.00,,,0.00,meteohub,2013-07-03 07:06:00,
2013-07-03 02:11:00,59.5,53.4,30.06,ENE,76,0.0,1.0,80,0.00,,,0.00,meteohub,2013-07-03 07:11:00,
2013-07-03 02:16:00,59.5,53.4,30.06,ENE,76,0.0,2.0,80,0.00,,,0.00,meteohub,2013-07-03 07:16:00,
2013-07-03 02:19:00,59.5,53.8,30.06,ENE,76,0.0,2.0,81,0.00,,,0.00,meteohub,2013-07-03 07:19:00,
2013-07-03 02:24:00,59.5,53.8,30.06,ENE,76,0.0,2.0,81,0.00,,,0.00,meteohub,2013-07-03 07:24:00,
2013-07-03 02:29:00,59.5,54.0,30.06,ENE,76,0.0,2.0,82,0.00,,,0.00,meteohub,2013-07-03 07:29:00,
2013-07-03 02:35:00,59.5,54.0,30.06,ENE,76,0.0,2.0,82,0.00,,,0.00,meteohub,2013-07-03 07:35:00,
2013-07-03 02:40:00,59.7,54.1,30.06,ENE,76,2.0,2.0,82,0.00,,,0.00,meteohub,2013-07-03 07:40:00,
2013-07-03 02:41:00,59.7,54.1,30.06,ENE,76,0.0,2.0,82,0.00,,,0.00,meteohub,2013-07-03 07:41:00,
2013-07-03 02:46:00,59.7,54.5,30.06,ENE,76,0.0,2.0,83,0.00,,,0.00,meteohub,2013-07-03 07:46:00,
2013-07-03 02:51:00,59.7,54.5,30.06,ENE,76,0.0,2.0,83,0.00,,,0.00,meteohub,2013-07-03 07:51:00,
2013-07-03 02:56:00,59.9,55.0,30.06,ENE,76,0.0,1.0,84,0.00,,,0.00,meteohub,2013-07-03 07:56:00,
2013-07-03 03:01:00,59.7,55.2,30.06,ENE,76,0.0,1.0,85,0.00,,,0.00,meteohub,2013-07-03 08:01:00,
2013-07-03 03:06:00,59.5,55.0,30.06,ENE,76,0.0,2.0,85,0.00,,,0.00,meteohub,2013-07-03 08:06:00,
2013-07-03 03:07:00,59.7,55.2,30.06,ENE,76,0.0,2.0,85,0.00,,,0.00,meteohub,2013-07-03 08:07:00,
2013-07-03 03:12:00,59.5,55.0,30.06,ENE,76,1.0,2.0,85,0.00,,,0.00,meteohub,2013-07-03 08:12:00,
2013-07-03 03:14:00,59.5,55.4,30.06,ENE,76,2.0,2.0,86,0.00,,,0.00,meteohub,2013-07-03 08:14:00,
2013-07-03 03:20:00,59.5,55.4,30.06,ENE,76,1.0,2.0,86,0.00,,,0.00,meteohub,2013-07-03 08:20:00,
2013-07-03 03:21:00,59.5,55.0,30.06,ENE,76,2.0,2.0,85,0.00,,,0.00,meteohub,2013-07-03 08:21:00,
2013-07-03 03:27:00,59.5,55.0,30.06,ENE,76,2.0,4.0,85,0.00,,,0.00,meteohub,2013-07-03 08:27:00,
2013-07-03 03:32:00,59.7,55.2,30.06,ENE,76,4.0,5.0,85,0.00,,,0.00,meteohub,2013-07-03 08:32:00,
2013-07-03 03:37:00,59.7,55.2,30.06,ENE,76,2.0,5.0,85,0.00,,,0.00,meteohub,2013-07-03 08:37:00,
2013-07-03 03:42:00,59.7,55.6,30.05,ENE,76,1.0,5.0,86,0.00,,,0.00,meteohub,2013-07-03 08:42:00,
2013-07-03 03:47:00,59.7,55.8,30.05,ENE,76,2.0,5.0,87,0.00,,,0.00,meteohub,2013-07-03 08:47:00,
2013-07-03 03:48:00,59.7,55.8,30.05,ENE,76,1.0,5.0,87,0.00,,,0.00,meteohub,2013-07-03 08:48:00,
2013-07-03 03:54:00,59.7,55.8,30.05,ENE,76,1.0,4.0,87,0.00,,,0.00,meteohub,2013-07-03 08:54:00,
2013-07-03 03:55:00,59.7,55.8,30.05,ENE,76,1.0,4.0,87,0.00,,,0.00,meteohub,2013-07-03 08:55:00,
2013-07-03 03:56:00,59.7,55.8,30.05,ENE,76,2.0,4.0,87,0.00,,,0.00,meteohub,2013-07-03 08:56:00,
2013-07-03 04:01:00,59.7,56.1,30.05,ENE,76,1.0,3.0,88,0.00,,,0.00,meteohub,2013-07-03 09:01:00,
2013-07-03 04:06:00,59.5,55.9,30.05,ENE,76,1.0,3.0,88,0.00,,,0.00,meteohub,2013-07-03 09:06:00,
2013-07-03 04:12:00,59.5,56.3,30.06,ENE,76,2.0,3.0,89,0.00,,,0.00,meteohub,2013-07-03 09:12:00,
2013-07-03 04:17:00,59.5,56.8,30.06,ENE,76,2.0,3.0,91,0.00,,,0.00,meteohub,2013-07-03 09:17:00,
2013-07-03 04:22:00,59.4,56.7,30.06,ENE,76,1.0,4.0,91,0.00,,,0.00,meteohub,2013-07-03 09:22:00,
2013-07-03 04:27:00,59.4,56.7,30.06,ENE,76,2.0,4.0,91,0.00,,,0.00,meteohub,2013-07-03 09:27:00,
2013-07-03 04:33:00,59.4,57.0,30.06,ENE,76,3.0,4.0,92,0.00,,,0.00,meteohub,2013-07-03 09:33:00,
2013-07-03 04:38:00,59.2,56.8,30.06,ENE,76,3.0,3.0,92,0.00,,,0.00,meteohub,2013-07-03 09:38:00,
2013-07-03 04:43:00,59.2,57.2,30.06,ENE,76,1.0,3.0,93,0.00,,,0.00,meteohub,2013-07-03 09:43:00,
2013-07-03 04:48:00,59.2,57.2,30.05,ENE,76,1.0,3.0,93,0.00,,,0.00,meteohub,2013-07-03 09:48:00,
2013-07-03 04:51:00,59.2,57.2,30.05,ENE,76,2.0,3.0,93,0.00,,,0.00,meteohub,2013-07-03 09:51:00,
2013-07-03 04:54:00,59.2,57.2,30.05,ENE,76,1.0,3.0,93,0.00,,,0.00,meteohub,2013-07-03 09:54:00,
2013-07-03 04:59:00,59.2,57.2,30.05,ENE,76,1.0,3.0,93,0.00,,,0.00,meteohub,2013-07-03 09:59:00,
2013-07-03 05:04:00,59.2,57.2,30.06,ENE,76,2.0,3.0,93,0.00,,,0.00,meteohub,2013-07-03 10:04:00,
2013-07-03 05:06:00,59.2,57.2,30.06,ENE,76,3.0,4.0,93,0.00,,,0.00,meteohub,2013-07-03 10:06:00,
2013-07-03 05:11:00,59.2,57.2,30.06,ENE,76,4.0,4.0,93,0.00,,,0.00,meteohub,2013-07-03 10:11:00,
2013-07-03 05:16:00,59.2,57.2,30.06,ENE,76,2.0,5.0,93,0.00,,,0.00,meteohub,2013-07-03 10:16:00,
2013-07-03 05:21:00,59.2,57.2,30.06,ENE,76,1.0,5.0,93,0.00,,,0.00,meteohub,2013-07-03 10:21:00,
2013-07-03 05:26:00,59.2,57.2,30.06,ENE,76,4.0,5.0,93,0.00,,,0.00,meteohub,2013-07-03 10:26:00,
2013-07-03 05:31:00,59.2,57.4,30.06,ENE,76,3.0,5.0,94,0.00,,,0.00,meteohub,2013-07-03 10:31:00,
2013-07-03 05:36:00,59.4,57.6,30.06,ENE,76,3.0,5.0,94,0.00,,,0.00,meteohub,2013-07-03 10:36:00,
2013-07-03 05:41:00,59.4,57.6,30.06,ENE,76,2.0,5.0,94,0.00,,,0.00,meteohub,2013-07-03 10:41:00,
2013-07-03 05:47:00,59.4,57.6,30.07,ENE,76,1.0,4.0,94,0.00,,,0.00,meteohub,2013-07-03 10:47:00,
2013-07-03 05:51:00,59.4,57.6,30.07,ENE,76,2.0,4.0,94,0.00,,,0.00,meteohub,2013-07-03 10:51:00,
2013-07-03 05:55:00,59.4,57.6,30.07,ENE,76,1.0,4.0,94,0.00,,,0.00,meteohub,2013-07-03 10:55:00,
2013-07-03 06:00:00,59.4,57.6,30.07,ENE,76,3.0,4.0,94,0.00,,,0.00,meteohub,2013-07-03 11:00:00,
2013-07-03 06:01:00,59.4,57.6,30.07,ENE,76,3.0,4.0,94,0.00,,,0.00,meteohub,2013-07-03 11:01:00,
2013-07-03 06:06:00,59.4,57.6,30.07,ENE,76,3.0,4.0,94,0.00,,,0.00,meteohub,2013-07-03 11:06:00,
2013-07-03 06:09:00,59.4,57.6,30.07,ENE,76,4.0,4.0,94,0.00,,,0.00,meteohub,2013-07-03 11:09:00,
2013-07-03 06:11:00,59.4,57.6,30.07,ENE,76,4.0,5.0,94,0.00,,,0.00,meteohub,2013-07-03 11:11:00,
2013-07-03 06:17:00,59.4,57.6,30.07,NNE,32,4.0,7.0,94,0.00,,,0.00,meteohub,2013-07-03 11:17:00,
2013-07-03 06:21:00,59.4,57.6,30.07,NNE,32,5.0,7.0,94,0.00,,,0.00,meteohub,2013-07-03 11:21:00,
2013-07-03 06:25:00,59.4,57.6,30.07,NNE,19,5.0,7.0,94,0.00,,,0.00,meteohub,2013-07-03 11:25:00,
2013-07-03 06:27:00,59.4,57.6,30.08,NNE,18,3.0,7.0,94,0.00,,,0.00,meteohub,2013-07-03 11:27:00,
2013-07-03 06:32:00,59.2,57.4,30.08,NNE,28,3.0,6.0,94,0.00,,,0.00,meteohub,2013-07-03 11:32:00,
2013-07-03 06:38:00,59.2,57.4,30.08,NE,40,4.0,7.0,94,0.00,,,0.00,meteohub,2013-07-03 11:38:00,
2013-07-03 06:43:00,59.2,57.4,30.08,NE,34,4.0,7.0,94,0.00,,,0.00,meteohub,2013-07-03 11:43:00,
2013-07-03 06:45:00,59.2,57.4,30.08,NE,34,3.0,7.0,94,0.00,,,0.00,meteohub,2013-07-03 11:45:00,
2013-07-03 06:50:00,59.4,57.6,30.08,NE,34,3.0,7.0,94,0.00,,,0.00,meteohub,2013-07-03 11:50:00,
2013-07-03 06:55:00,59.4,57.6,30.08,NE,34,5.0,6.0,94,0.00,,,0.00,meteohub,2013-07-03 11:55:00,
2013-07-03 07:00:00,59.4,57.6,30.08,NNE,28,4.0,6.0,94,0.00,,,0.00,meteohub,2013-07-03 12:00:00,
2013-07-03 07:04:00,59.5,57.7,30.08,NNE,28,4.0,6.0,94,0.00,,,0.00,meteohub,2013-07-03 12:04:00,
2013-07-03 07:10:00,59.5,57.7,30.07,North,11,3.0,6.0,94,0.00,,,0.00,meteohub,2013-07-03 12:10:00,
2013-07-03 07:12:00,59.5,57.7,30.07,North,11,3.0,7.0,94,0.00,,,0.00,meteohub,2013-07-03 12:12:00,
2013-07-03 07:17:00,59.7,57.9,30.07,North,9,5.0,7.0,94,0.00,,,0.00,meteohub,2013-07-03 12:17:00,
2013-07-03 07:20:00,59.7,57.7,30.07,North,9,4.0,7.0,93,0.00,,,0.00,meteohub,2013-07-03 12:20:00,
2013-07-03 07:25:00,60.1,58.1,30.07,NNE,15,4.0,7.0,93,0.00,,,0.00,meteohub,2013-07-03 12:25:00,
2013-07-03 07:30:00,60.3,58.3,30.07,NNE,22,6.0,7.0,93,0.00,,,0.00,meteohub,2013-07-03 12:30:00,
2013-07-03 07:36:00,60.4,58.5,30.08,NNE,18,6.0,8.0,93,0.00,,,0.00,meteohub,2013-07-03 12:36:00,
2013-07-03 07:41:00,60.6,58.3,30.08,NNE,19,6.0,8.0,92,0.00,,,0.00,meteohub,2013-07-03 12:41:00,
2013-07-03 07:46:00,60.8,58.5,30.08,NNE,18,4.0,8.0,92,0.00,,,0.00,meteohub,2013-07-03 12:46:00,
2013-07-03 07:51:00,61.0,58.6,30.08,NNE,22,5.0,8.0,92,0.00,,,0.00,meteohub,2013-07-03 12:51:00,
2013-07-03 07:57:00,61.0,58.6,30.08,NNE,18,3.0,8.0,92,0.00,,,0.00,meteohub,2013-07-03 12:57:00,
2013-07-03 08:02:00,61.0,58.3,30.08,NNE,24,4.0,8.0,91,0.00,,,0.00,meteohub,2013-07-03 13:02:00,
2013-07-03 08:07:00,61.2,58.8,30.08,NNE,12,7.0,9.0,92,0.00,,,0.00,meteohub,2013-07-03 13:07:00,
2013-07-03 08:13:00,61.2,58.5,30.08,NNE,19,5.0,9.0,91,0.00,,,0.00,meteohub,2013-07-03 13:13:00,
2013-07-03 08:18:00,61.3,58.6,30.08,NNE,30,4.0,9.0,91,0.00,,,0.00,meteohub,2013-07-03 13:18:00,
2013-07-03 08:23:00,61.7,58.8,30.08,NE,42,4.0,9.0,90,0.00,,,0.00,meteohub,2013-07-03 13:23:00,
2013-07-03 08:26:00,61.9,59.0,30.08,NNE,20,4.0,9.0,90,0.00,,,0.00,meteohub,2013-07-03 13:26:00,
2013-07-03 08:27:00,62.1,59.2,30.08,NNE,30,5.0,9.0,90,0.00,,,0.00,meteohub,2013-07-03 13:27:00,
2013-07-03 08:32:00,62.2,59.2,30.09,NE,36,6.0,9.0,90,0.00,,,0.00,meteohub,2013-07-03 13:32:00,
2013-07-03 08:37:00,62.6,59.5,30.09,NNE,18,6.0,9.0,90,0.00,,,0.00,meteohub,2013-07-03 13:37:00,
2013-07-03 08:38:00,62.6,59.4,30.09,NNE,19,3.0,9.0,89,0.00,,,0.00,meteohub,2013-07-03 13:38:00,
2013-07-03 08:43:00,62.8,59.5,30.09,North,5,6.0,10.0,89,0.00,,,0.00,meteohub,2013-07-03 13:43:00,
2013-07-03 08:48:00,63.1,60.1,30.09,NE,44,7.0,10.0,90,0.00,,,0.00,meteohub,2013-07-03 13:48:00,
2013-07-03 08:53:00,63.3,60.1,30.09,NNE,33,5.0,10.0,89,0.00,,,0.00,meteohub,2013-07-03 13:53:00,
2013-07-03 08:59:00,63.3,60.1,30.09,NE,44,5.0,10.0,89,0.00,,,0.00,meteohub,2013-07-03 13:59:00,
2013-07-03 09:04:00,64.0,60.4,30.09,NE,36,4.0,9.0,88,0.00,,,0.00,meteohub,2013-07-03 14:04:00,
2013-07-03 09:06:00,64.0,60.4,30.09,NNE,30,6.0,9.0,88,0.00,,,0.00,meteohub,2013-07-03 14:06:00,
2013-07-03 09:11:00,64.2,60.6,30.09,NE,42,6.0,9.0,88,0.00,,,0.00,meteohub,2013-07-03 14:11:00,
2013-07-03 09:16:00,64.4,60.1,30.08,NNE,24,4.0,11.0,86,0.00,,,0.00,meteohub,2013-07-03 14:16:00,
2013-07-03 09:17:00,64.6,60.3,30.08,North,5,7.0,11.0,86,0.00,,,0.00,meteohub,2013-07-03 14:17:00,
2013-07-03 09:22:00,64.9,59.9,30.08,NNE,32,7.0,11.0,84,0.00,,,0.00,meteohub,2013-07-03 14:22:00,
2013-07-03 09:27:00,64.8,59.2,30.08,ENE,59,8.0,13.0,82,0.00,,,0.00,meteohub,2013-07-03 14:27:00,
2013-07-03 09:30:00,64.8,59.9,30.08,North,355,9.0,13.0,84,0.00,,,0.00,meteohub,2013-07-03 14:30:00,
2013-07-03 09:35:00,64.9,59.7,30.08,NNE,22,4.0,13.0,83,0.00,,,0.00,meteohub,2013-07-03 14:35:00,
2013-07-03 09:39:00,65.5,60.3,30.08,North,0,6.0,13.0,83,0.00,,,0.00,meteohub,2013-07-03 14:39:00,
2013-07-03 09:41:00,65.5,59.9,30.08,NE,36,11.0,12.0,82,0.00,,,0.00,meteohub,2013-07-03 14:41:00,
2013-07-03 09:46:00,65.1,59.2,30.08,NE,50,7.0,12.0,81,0.00,,,0.00,meteohub,2013-07-03 14:46:00,
2013-07-03 09:51:00,65.3,59.7,30.08,NE,34,7.0,12.0,82,0.00,,,0.00,meteohub,2013-07-03 14:51:00,
2013-07-03 09:56:00,65.1,59.2,30.08,NNE,24,9.0,13.0,81,0.00,,,0.00,meteohub,2013-07-03 14:56:00,
2013-07-03 09:58:00,65.1,59.5,30.08,NNE,14,7.0,13.0,82,0.00,,,0.00,meteohub,2013-07-03 14:58:00,
2013-07-03 09:59:00,65.1,59.5,30.08,North,5,9.0,13.0,82,0.00,,,0.00,meteohub,2013-07-03 14:59:00,
2013-07-03 10:03:00,65.7,59.7,30.08,NE,40,6.0,13.0,81,0.00,,,0.00,meteohub,2013-07-03 15:03:00,
2013-07-03 10:04:00,65.7,59.7,30.08,NE,42,5.0,13.0,81,0.00,,,0.00,meteohub,2013-07-03 15:04:00,
2013-07-03 10:09:00,66.0,59.4,30.08,NE,46,6.0,11.0,79,0.00,,,0.00,meteohub,2013-07-03 15:09:00,
2013-07-03 10:14:00,66.2,59.9,30.08,NNE,13,5.0,11.0,80,0.00,,,0.00,meteohub,2013-07-03 15:14:00,
2013-07-03 10:17:00,66.0,59.7,30.07,North,0,7.0,10.0,80,0.00,,,0.00,meteohub,2013-07-03 15:17:00,
2013-07-03 10:22:00,66.0,59.4,30.08,NNE,24,8.0,10.0,79,0.00,,,0.00,meteohub,2013-07-03 15:22:00,
2013-07-03 10:27:00,66.0,59.4,30.08,NNE,29,6.0,10.0,79,0.00,,,0.00,meteohub,2013-07-03 15:27:00,
2013-07-03 10:32:00,66.0,59.4,30.08,NNE,21,9.0,10.0,79,0.00,,,0.00,meteohub,2013-07-03 15:32:00,
2013-07-03 10:38:00,66.2,59.5,30.08,NNE,14,7.0,12.0,79,0.00,,,0.00,meteohub,2013-07-03 15:38:00,
2013-07-03 10:43:00,66.0,59.4,30.08,NE,46,5.0,12.0,79,0.00,,,0.00,meteohub,2013-07-03 15:43:00,
2013-07-03 10:49:00,66.0,59.4,30.08,North,355,10.0,12.0,79,0.00,,,0.00,meteohub,2013-07-03 15:49:00,
2013-07-03 10:52:00,66.0,59.0,30.08,NNE,29,6.0,9.0,78,0.00,,,0.00,meteohub,2013-07-03 15:52:00,
2013-07-03 10:54:00,66.0,59.4,30.08,NE,38,6.0,9.0,79,0.00,,,0.00,meteohub,2013-07-03 15:54:00,
2013-07-03 10:59:00,66.0,59.0,30.07,NE,38,6.0,10.0,78,0.00,,,0.00,meteohub,2013-07-03 15:59:00,
2013-07-03 11:04:00,66.0,59.0,30.07,NE,43,5.0,10.0,78,0.00,,,0.00,meteohub,2013-07-03 16:04:00,
2013-07-03 11:09:00,65.8,58.8,30.07,NNE,33,4.0,10.0,78,0.00,,,0.00,meteohub,2013-07-03 16:09:00,
2013-07-03 11:14:00,66.0,59.4,30.07,NNE,24,8.0,10.0,79,0.00,,,0.00,meteohub,2013-07-03 16:14:00,
2013-07-03 11:20:00,66.2,59.5,30.07,NNE,24,9.0,10.0,79,0.00,,,0.00,meteohub,2013-07-03 16:20:00,
2013-07-03 11:25:00,66.9,60.3,30.07,NE,38,6.0,9.0,79,0.00,,,0.00,meteohub,2013-07-03 16:25:00,
2013-07-03 11:31:00,67.3,60.3,30.07,NNE,32,4.0,10.0,78,0.00,,,0.00,meteohub,2013-07-03 16:31:00,
2013-07-03 11:36:00,67.1,59.7,30.07,NE,40,4.0,10.0,77,0.00,,,0.00,meteohub,2013-07-03 16:36:00,
2013-07-03 11:41:00,67.6,61.0,30.06,North,355,5.0,10.0,79,0.00,,,0.00,meteohub,2013-07-03 16:41:00,
2013-07-03 11:46:00,67.6,60.3,30.06,NE,40,4.0,10.0,77,0.00,,,0.00,meteohub,2013-07-03 16:46:00,
2013-07-03 11:52:00,68.2,60.6,30.06,NNE,23,6.0,10.0,77,0.00,,,0.00,meteohub,2013-07-03 16:52:00,
2013-07-03 11:57:00,68.4,60.8,30.06,North,11,5.0,11.0,77,0.00,,,0.00,meteohub,2013-07-03 16:57:00,
2013-07-03 12:02:00,68.5,61.0,30.06,North,0,8.0,11.0,77,0.00,,,0.00,meteohub,2013-07-03 17:02:00,
2013-07-03 12:07:00,68.5,60.3,30.06,NNE,24,8.0,11.0,75,0.00,,,0.00,meteohub,2013-07-03 17:07:00,
2013-07-03 12:12:00,68.5,60.3,30.06,NE,39,6.0,11.0,75,0.00,,,0.00,meteohub,2013-07-03 17:12:00,
2013-07-03 12:17:00,68.9,61.0,30.06,NE,37,2.0,11.0,76,0.00,,,0.00,meteohub,2013-07-03 17:17:00,
2013-07-03 12:22:00,68.7,60.8,30.06,NE,40,7.0,11.0,76,0.00,,,0.00,meteohub,2013-07-03 17:22:00,
2013-07-03 12:27:00,68.5,60.6,30.06,NE,46,7.0,9.0,76,0.00,,,0.00,meteohub,2013-07-03 17:27:00,
2013-07-03 12:32:00,68.5,61.0,30.06,ENE,57,8.0,9.0,77,0.00,,,0.00,meteohub,2013-07-03 17:32:00,
2013-07-03 12:37:00,68.5,60.6,30.06,NE,49,3.0,10.0,76,0.00,,,0.00,meteohub,2013-07-03 17:37:00,
2013-07-03 12:42:00,68.5,60.6,30.06,NE,38,3.0,10.0,76,0.00,,,0.00,meteohub,2013-07-03 17:42:00,
2013-07-03 12:47:00,68.5,60.3,30.06,NNE,33,2.0,10.0,75,0.00,,,0.00,meteohub,2013-07-03 17:47:00,
2013-07-03 12:52:00,68.7,61.2,30.05,NE,38,3.0,9.0,77,0.00,,,0.00,meteohub,2013-07-03 17:52:00,
2013-07-03 12:57:00,68.7,61.5,30.06,NNE,28,7.0,8.0,78,0.00,,,0.00,meteohub,2013-07-03 17:57:00,
2013-07-03 13:02:00,68.5,61.0,30.06,NE,51,8.0,9.0,77,0.00,,,0.00,meteohub,2013-07-03 18:02:00,
2013-07-03 13:07:00,68.4,60.8,30.05,ENE,57,5.0,9.0,77,0.00,,,0.00,meteohub,2013-07-03 18:07:00,
2013-07-03 13:12:00,68.4,61.2,30.05,NE,55,4.0,10.0,78,0.00,,,0.00,meteohub,2013-07-03 18:12:00,
2013-07-03 13:17:00,68.2,61.0,30.05,NNE,28,7.0,10.0,78,0.00,,,0.00,meteohub,2013-07-03 18:17:00,
2013-07-03 13:22:00,68.2,61.0,30.05,NNE,24,8.0,10.0,78,0.00,,,0.00,meteohub,2013-07-03 18:22:00,
2013-07-03 13:27:00,68.4,61.2,30.05,NE,34,8.0,10.0,78,0.00,,,0.00,meteohub,2013-07-03 18:27:00,
2013-07-03 13:33:00,68.5,61.3,30.05,NE,49,6.0,9.0,78,0.00,,,0.00,meteohub,2013-07-03 18:33:00,
2013-07-03 13:38:00,69.3,61.7,30.04,NE,36,3.0,9.0,77,0.00,,,0.00,meteohub,2013-07-03 18:38:00,
2013-07-03 13:43:00,69.6,61.7,30.04,North,355,6.0,11.0,76,0.00,,,0.00,meteohub,2013-07-03 18:43:00,
2013-07-03 13:48:00,69.8,61.9,30.04,NE,40,6.0,11.0,76,0.00,,,0.00,meteohub,2013-07-03 18:48:00,
2013-07-03 13:53:00,70.0,62.1,30.04,NNE,19,5.0,11.0,76,0.00,,,0.00,meteohub,2013-07-03 18:53:00,
2013-07-03 13:59:00,70.0,61.7,30.04,ENE,77,0.0,9.0,75,0.00,,,0.00,meteohub,2013-07-03 18:59:00,
2013-07-03 14:04:00,70.0,62.1,30.04,NNE,24,7.0,10.0,76,0.00,,,0.00,meteohub,2013-07-03 19:04:00,
2013-07-03 14:10:00,69.6,61.3,30.04,NNE,30,3.0,10.0,75,0.00,,,0.00,meteohub,2013-07-03 19:10:00,
2013-07-03 14:15:00,70.2,61.9,30.04,NE,51,6.0,10.0,75,0.00,,,0.00,meteohub,2013-07-03 19:15:00,
2013-07-03 14:20:00,70.0,61.3,30.04,ENE,57,2.0,10.0,74,0.00,,,0.00,meteohub,2013-07-03 19:20:00,
2013-07-03 14:25:00,70.2,62.2,30.04,NE,35,6.0,10.0,76,0.00,,,0.00,meteohub,2013-07-03 19:25:00,
2013-07-03 14:30:00,70.2,62.6,30.04,NE,46,4.0,10.0,77,0.00,,,0.00,meteohub,2013-07-03 19:30:00,
2013-07-03 14:36:00,70.0,61.7,30.04,NE,35,3.0,9.0,75,0.00,,,0.00,meteohub,2013-07-03 19:36:00,
2013-07-03 14:42:00,69.8,61.9,30.04,NE,34,6.0,9.0,76,0.00,,,0.00,meteohub,2013-07-03 19:42:00,
2013-07-03 14:47:00,69.6,61.3,30.03,NE,46,6.0,9.0,75,0.00,,,0.00,meteohub,2013-07-03 19:47:00,
2013-07-03 14:52:00,70.0,62.1,30.03,NE,42,6.0,8.0,76,0.00,,,0.00,meteohub,2013-07-03 19:52:00,
2013-07-03 14:58:00,69.8,61.9,30.03,NE,38,5.0,11.0,76,0.00,,,0.00,meteohub,2013-07-03 19:58:00,
2013-07-03 15:03:00,69.6,61.7,30.03,NNE,27,9.0,11.0,76,0.00,,,0.00,meteohub,2013-07-03 20:03:00,
2013-07-03 15:09:00,69.4,61.5,30.03,NNE,21,6.0,11.0,76,0.00,,,0.00,meteohub,2013-07-03 20:09:00,
2013-07-03 15:14:00,70.0,62.4,30.03,NE,36,6.0,11.0,77,0.00,,,0.00,meteohub,2013-07-03 20:14:00,
2013-07-03 15:19:00,69.8,61.9,30.03,NE,39,7.0,11.0,76,0.00,,,0.00,meteohub,2013-07-03 20:19:00,
2013-07-03 15:25:00,69.4,61.9,30.03,NE,41,4.0,10.0,77,0.00,,,0.00,meteohub,2013-07-03 20:25:00,
2013-07-03 15:30:00,69.1,62.2,30.04,NE,51,5.0,8.0,79,0.00,,,0.00,meteohub,2013-07-03 20:30:00,
2013-07-03 15:35:00,68.4,62.2,30.04,ENE,68,5.0,9.0,81,0.00,,,0.00,meteohub,2013-07-03 20:35:00,
2013-07-03 15:41:00,67.6,61.5,30.04,ENE,63,7.0,9.0,81,0.00,,,0.00,meteohub,2013-07-03 20:41:00,
2013-07-03 15:46:00,67.5,61.7,30.04,ENE,63,5.0,9.0,82,0.00,,,0.00,meteohub,2013-07-03 20:46:00,
2013-07-03 15:51:00,67.3,62.2,30.04,ENE,63,1.0,9.0,84,0.01,,,0.01,meteohub,2013-07-03 20:51:00,
2013-07-03 15:56:00,66.9,61.9,30.04,ENE,63,5.0,9.0,84,0.01,,,0.01,meteohub,2013-07-03 20:56:00,
2013-07-03 16:02:00,66.7,62.1,30.04,ENE,63,4.0,8.0,85,0.01,,,0.01,meteohub,2013-07-03 21:02:00,
2013-07-03 16:07:00,66.7,62.4,30.03,ENE,63,3.0,7.0,86,0.01,,,0.01,meteohub,2013-07-03 21:07:00,
2013-07-03 16:12:00,66.7,62.1,30.03,ENE,63,2.0,7.0,85,0.01,,,0.01,meteohub,2013-07-03 21:12:00,
2013-07-03 16:17:00,66.9,62.2,30.03,ENE,63,1.0,5.0,85,0.01,,,0.01,meteohub,2013-07-03 21:17:00,
2013-07-03 16:22:00,67.3,62.6,30.03,ENE,63,3.0,4.0,85,0.01,,,0.01,meteohub,2013-07-03 21:22:00,
2013-07-03 16:27:00,67.5,62.8,30.03,ENE,63,3.0,5.0,85,0.01,,,0.01,meteohub,2013-07-03 21:27:00,
2013-07-03 16:32:00,67.3,62.6,30.03,ENE,63,0.0,5.0,85,0.01,,,0.01,meteohub,2013-07-03 21:32:00,
2013-07-03 16:37:00,67.1,62.4,30.03,ENE,63,2.0,5.0,85,0.02,,,0.02,meteohub,2013-07-03 21:37:00,
2013-07-03 16:42:00,66.9,62.2,30.02,ENE,63,2.0,4.0,85,0.02,,,0.02,meteohub,2013-07-03 21:42:00,
2013-07-03 16:48:00,67.1,62.8,30.02,ENE,63,3.0,4.0,86,0.02,,,0.02,meteohub,2013-07-03 21:48:00,
2013-07-03 16:53:00,66.9,62.6,30.02,ENE,63,2.0,4.0,86,0.01,,,0.02,meteohub,2013-07-03 21:53:00,
2013-07-03 16:58:00,66.9,62.6,30.02,ENE,63,1.0,4.0,86,0.01,,,0.02,meteohub,2013-07-03 21:58:00,
2013-07-03 17:04:00,67.1,62.8,30.01,ENE,63,0.0,4.0,86,0.01,,,0.02,meteohub,2013-07-03 22:04:00,
2013-07-03 17:09:00,67.3,63.0,30.02,ENE,63,0.0,4.0,86,0.01,,,0.02,meteohub,2013-07-03 22:09:00,
2013-07-03 17:14:00,67.3,63.0,30.02,ENE,63,0.0,2.0,86,0.01,,,0.02,meteohub,2013-07-03 22:14:00,
2013-07-03 17:19:00,67.1,62.8,30.02,ENE,63,0.0,2.0,86,0.01,,,0.02,meteohub,2013-07-03 22:19:00,
2013-07-03 17:24:00,66.9,62.6,30.02,ENE,63,0.0,2.0,86,0.01,,,0.02,meteohub,2013-07-03 22:24:00,
2013-07-03 17:29:00,66.9,63.0,30.02,ENE,63,0.0,2.0,87,0.01,,,0.02,meteohub,2013-07-03 22:29:00,
2013-07-03 17:35:00,66.9,63.0,30.02,ENE,63,0.0,2.0,87,0.01,,,0.02,meteohub,2013-07-03 22:35:00,
2013-07-03 17:40:00,67.3,63.3,30.01,ENE,63,0.0,3.0,87,0.00,,,0.02,meteohub,2013-07-03 22:40:00,
2013-07-03 17:45:00,67.5,63.1,30.02,ENE,63,1.0,3.0,86,0.00,,,0.02,meteohub,2013-07-03 22:45:00,
2013-07-03 17:51:00,67.5,62.4,30.02,ENE,63,1.0,2.0,84,0.00,,,0.02,meteohub,2013-07-03 22:51:00,
2013-07-03 17:56:00,67.6,62.6,30.02,ENE,63,0.0,2.0,84,0.00,,,0.02,meteohub,2013-07-03 22:56:00,
2013-07-03 18:01:00,67.6,62.6,30.02,ENE,63,0.0,2.0,84,0.00,,,0.02,meteohub,2013-07-03 23:01:00,
2013-07-03 18:06:00,67.6,62.2,30.02,ENE,63,0.0,2.0,83,0.00,,,0.02,meteohub,2013-07-03 23:06:00,
2013-07-03 18:12:00,67.6,62.6,30.02,ENE,63,0.0,2.0,84,0.00,,,0.02,meteohub,2013-07-03 23:12:00,
2013-07-03 18:17:00,67.5,62.4,30.01,ENE,63,0.0,3.0,84,0.00,,,0.02,meteohub,2013-07-03 23:17:00,
2013-07-03 18:22:00,67.5,62.4,30.01,ENE,63,2.0,3.0,84,0.00,,,0.02,meteohub,2013-07-03 23:22:00,
2013-07-03 18:27:00,67.5,62.8,30.01,ENE,63,1.0,3.0,85,0.00,,,0.02,meteohub,2013-07-03 23:27:00,
2013-07-03 18:33:00,67.5,62.8,30.01,ENE,63,0.0,3.0,85,0.00,,,0.02,meteohub,2013-07-03 23:33:00,
2013-07-03 18:38:00,67.3,62.6,30.01,ENE,63,1.0,3.0,85,0.00,,,0.02,meteohub,2013-07-03 23:38:00,
2013-07-03 18:43:00,67.3,63.0,30.01,ENE,63,0.0,3.0,86,0.00,,,0.02,meteohub,2013-07-03 23:43:00,
2013-07-03 18:49:00,67.3,63.0,30.01,ENE,63,0.0,2.0,86,0.00,,,0.02,meteohub,2013-07-03 23:49:00,
2013-07-03 18:54:00,67.3,63.0,30.01,ENE,63,0.0,2.0,86,0.00,,,0.02,meteohub,2013-07-03 23:54:00,
2013-07-03 18:59:00,67.3,63.0,30.01,ENE,63,1.0,1.0,86,0.00,,,0.02,meteohub,2013-07-03 23:59:00,
2013-07-03 19:04:00,67.3,63.0,30.01,ENE,63,0.0,3.0,86,0.00,,,0.02,meteohub,2013-07-04 00:04:00,
2013-07-03 19:09:00,67.3,63.0,30.01,ENE,63,0.0,3.0,86,0.00,,,0.02,meteohub,2013-07-04 00:09:00,
2013-07-03 19:14:00,67.3,63.3,30.01,ENE,63,3.0,3.0,87,0.00,,,0.02,meteohub,2013-07-04 00:14:00,
2013-07-03 19:19:00,67.5,63.5,30.01,ENE,63,4.0,4.0,87,0.00,,,0.02,meteohub,2013-07-04 00:19:00,
2013-07-03 19:24:00,67.1,63.5,30.01,ENE,63,5.0,7.0,88,0.00,,,0.02,meteohub,2013-07-04 00:24:00,
2013-07-03 19:29:00,66.7,63.1,30.01,ENE,63,1.0,7.0,88,0.00,,,0.02,meteohub,2013-07-04 00:29:00,
2013-07-03 19:35:00,66.6,63.1,30.01,ENE,63,0.0,7.0,89,0.00,,,0.02,meteohub,2013-07-04 00:35:00,
2013-07-03 19:40:00,66.6,63.1,30.01,ENE,63,2.0,5.0,89,0.00,,,0.02,meteohub,2013-07-04 00:40:00,
2013-07-03 19:45:00,66.6,63.5,30.01,ENE,63,2.0,4.0,90,0.00,,,0.02,meteohub,2013-07-04 00:45:00,
2013-07-03 19:51:00,66.4,63.3,30.01,ENE,63,1.0,3.0,90,0.00,,,0.02,meteohub,2013-07-04 00:51:00,
2013-07-03 19:56:00,66.2,63.1,30.01,ENE,63,0.0,3.0,90,0.00,,,0.02,meteohub,2013-07-04 00:56:00,
2013-07-03 20:02:00,66.2,63.1,30.01,ENE,63,0.0,3.0,90,0.00,,,0.02,meteohub,2013-07-04 01:02:00,
2013-07-03 20:07:00,66.2,63.1,30.01,ENE,63,2.0,3.0,90,0.00,,,0.02,meteohub,2013-07-04 01:07:00,
2013-07-03 20:12:00,66.0,63.0,30.01,ENE,63,1.0,3.0,90,0.00,,,0.02,meteohub,2013-07-04 01:12:00,
2013-07-03 20:17:00,66.0,63.0,30.01,ENE,63,1.0,4.0,90,0.00,,,0.02,meteohub,2013-07-04 01:17:00,
2013-07-03 20:23:00,65.8,63.1,30.01,ENE,63,1.0,4.0,91,0.00,,,0.02,meteohub,2013-07-04 01:23:00,
2013-07-03 20:28:00,65.8,63.1,30.01,ENE,63,0.0,4.0,91,0.00,,,0.02,meteohub,2013-07-04 01:28:00,
2013-07-03 20:33:00,65.7,63.0,30.02,ENE,63,2.0,3.0,91,0.00,,,0.02,meteohub,2013-07-04 01:33:00,
2013-07-03 20:39:00,65.7,63.0,30.02,ENE,63,1.0,3.0,91,0.00,,,0.02,meteohub,2013-07-04 01:39:00,
2013-07-03 20:44:00,65.7,63.0,30.02,ENE,63,0.0,3.0,91,0.00,,,0.02,meteohub,2013-07-04 01:44:00,
2013-07-03 20:49:00,65.7,63.3,30.02,ENE,63,0.0,3.0,92,0.00,,,0.02,meteohub,2013-07-04 01:49:00,
2013-07-03 20:55:00,65.7,63.3,30.02,ENE,63,0.0,3.0,92,0.00,,,0.02,meteohub,2013-07-04 01:55:00,
2013-07-03 21:00:00,65.7,63.3,30.02,ENE,63,0.0,1.0,92,0.00,,,0.02,meteohub,2013-07-04 02:00:00,
2013-07-03 21:05:00,65.5,63.1,30.02,ENE,63,0.0,1.0,92,0.00,,,0.02,meteohub,2013-07-04 02:05:00,
2013-07-03 21:10:00,65.5,63.1,30.02,ENE,63,2.0,2.0,92,0.00,,,0.02,meteohub,2013-07-04 02:10:00,
2013-07-03 21:15:00,65.5,63.1,30.03,ENE,63,0.0,3.0,92,0.00,,,0.02,meteohub,2013-07-04 02:15:00,
2013-07-03 21:20:00,65.5,63.1,30.03,ENE,63,0.0,3.0,92,0.00,,,0.02,meteohub,2013-07-04 02:20:00,
2013-07-03 21:25:00,65.5,63.1,30.03,ENE,63,1.0,5.0,92,0.00,,,0.02,meteohub,2013-07-04 02:25:00,
2013-07-03 21:30:00,65.3,63.0,30.03,ENE,63,0.0,3.0,92,0.00,,,0.02,meteohub,2013-07-04 02:30:00,
2013-07-03 21:35:00,65.3,63.0,30.03,ENE,63,0.0,3.0,92,0.00,,,0.02,meteohub,2013-07-04 02:35:00,
2013-07-03 21:40:00,65.3,63.0,30.04,ENE,63,0.0,3.0,92,0.00,,,0.02,meteohub,2013-07-04 02:40:00,
2013-07-03 21:46:00,65.5,63.1,30.04,ENE,63,4.0,4.0,92,0.00,,,0.02,meteohub,2013-07-04 02:46:00,
2013-07-03 21:51:00,65.1,62.8,30.04,ENE,63,3.0,4.0,92,0.00,,,0.02,meteohub,2013-07-04 02:51:00,
2013-07-03 21:57:00,65.1,62.8,30.04,ENE,63,0.0,4.0,92,0.00,,,0.02,meteohub,2013-07-04 02:57:00,
2013-07-03 22:02:00,65.1,62.8,30.04,ENE,63,0.0,4.0,92,0.00,,,0.02,meteohub,2013-07-04 03:02:00,
2013-07-03 22:07:00,65.1,63.0,30.04,ENE,63,0.0,4.0,93,0.00,,,0.02,meteohub,2013-07-04 03:07:00,
2013-07-03 22:12:00,64.9,62.6,30.03,ENE,63,0.0,3.0,92,0.00,,,0.02,meteohub,2013-07-04 03:12:00,
2013-07-03 22:17:00,64.9,62.8,30.03,ENE,63,0.0,3.0,93,0.00,,,0.02,meteohub,2013-07-04 03:17:00,
2013-07-03 22:22:00,64.9,62.8,30.03,ENE,63,0.0,3.0,93,0.00,,,0.02,meteohub,2013-07-04 03:22:00,
2013-07-03 22:27:00,64.9,62.8,30.03,ENE,63,0.0,0.0,93,0.00,,,0.02,meteohub,2013-07-04 03:27:00,
2013-07-03 22:32:00,64.9,62.8,30.03,ENE,63,0.0,1.0,93,0.00,,,0.02,meteohub,2013-07-04 03:32:00,
2013-07-03 22:37:00,64.9,62.8,30.03,ENE,63,0.0,2.0,93,0.00,,,0.02,meteohub,2013-07-04 03:37:00,
2013-07-03 22:43:00,64.8,62.6,30.03,ENE,63,0.0,2.0,93,0.00,,,0.02,meteohub,2013-07-04 03:43:00,
2013-07-03 22:48:00,64.8,62.6,30.04,ENE,63,0.0,2.0,93,0.00,,,0.02,meteohub,2013-07-04 03:48:00,
2013-07-03 22:53:00,64.8,62.6,30.04,ENE,63,1.0,1.0,93,0.00,,,0.02,meteohub,2013-07-04 03:53:00,
2013-07-03 22:58:00,64.6,62.4,30.04,ENE,63,1.0,1.0,93,0.00,,,0.02,meteohub,2013-07-04 03:58:00,
2013-07-03 23:01:00,64.8,62.6,30.04,ENE,63,1.0,2.0,93,0.00,,,0.02,meteohub,2013-07-04 04:01:00,
2013-07-03 23:02:00,64.6,62.4,30.03,ENE,63,1.0,2.0,93,0.00,,,0.02,meteohub,2013-07-04 04:02:00,
2013-07-03 23:04:00,64.6,62.4,30.03,ENE,63,0.0,2.0,93,0.00,,,0.02,meteohub,2013-07-04 04:04:00,
2013-07-03 23:10:00,64.6,62.4,30.03,ENE,63,0.0,3.0,93,0.00,,,0.02,meteohub,2013-07-04 04:10:00,
2013-07-03 23:15:00,64.4,62.4,30.03,ENE,63,0.0,3.0,93,0.00,,,0.02,meteohub,2013-07-04 04:15:00,
2013-07-03 23:20:00,64.4,62.4,30.03,ENE,63,0.0,3.0,93,0.00,,,0.02,meteohub,2013-07-04 04:20:00,
2013-07-03 23:25:00,64.2,62.2,30.03,ENE,63,0.0,3.0,93,0.00,,,0.02,meteohub,2013-07-04 04:25:00,
2013-07-03 23:30:00,64.2,62.2,30.03,ENE,63,0.0,2.0,93,0.00,,,0.02,meteohub,2013-07-04 04:30:00,
2013-07-03 23:36:00,64.2,62.4,30.03,ENE,63,0.0,2.0,94,0.00,,,0.02,meteohub,2013-07-04 04:36:00,
2013-07-03 23:41:00,64.0,62.2,30.03,ENE,63,0.0,2.0,94,0.00,,,0.02,meteohub,2013-07-04 04:41:00,
2013-07-03 23:46:00,64.0,62.2,30.03,ENE,63,0.0,1.0,94,0.00,,,0.02,meteohub,2013-07-04 04:46:00,
2013-07-03 23:51:00,64.2,62.4,30.03,ENE,63,0.0,2.0,94,0.00,,,0.02,meteohub,2013-07-04 04:51:00,
2013-07-03 23:57:00,64.2,62.4,30.03,ENE,63,0.0,3.0,94,0.00,,,0.02,meteohub,2013-07-04 04:57:00,